GPS BIII-6 (PRN 28)

Last updated on Tue Jul 01 2025 00:03:14 GMT+0000 (Coordinated Universal Time)

1 55268U 23009A 25181.20994137 .00000058 00000+0 00000+0 0 9993 2 55268 55.0967 162.3434 0003701 329.0256 213.7916 2.00568063 18188
UTC large
Height (km)
Speed (km/s)
/
Latitude / Longitude
Inclination (degrees)
Orbital Period (minutes)
Azimuth
Elevation
Range (km)
Doppler Factor

Next 0 passes for location: London (51.5072 / 0.1276)

Sorry there are no passes over London.